DW7302 Weather Reports


Display with metric or nautical units.
time (UTC)temp
F
wind
direction
speed
MPH
gust
MPH
rain 1hr
in
rain 24hr
in
rain mn
in
humidity
%
barometer
mb
20240518061603 66 119 0.0 0.0 0.00 0.00 0.00 83 1003.3
20240518060046 67 104 0.0 0.0 0.00 0.00 0.00 82 1003.2
20240518054536 67 103 0.0 0.0 0.00 0.00 0.00 82 1003.2
20240518053033 67 103 0.0 0.0 0.00 0.00 0.00 81 1003.2
20240518051530 67 105 0.0 0.0 0.00 0.00 0.00 80 1003.2
20240518050029 67 105 0.0 0.0 0.00 0.00 0.00 80 1003.2
20240518044526 67 81 0.0 0.0 0.00 0.00 0.00 80 1003.2
20240518043023 68 106 0.0 0.0 0.00 0.00 0.00 78 1003.2
20240518041531 68 105 0.0 0.0 0.00 0.00 0.00 78 1003.4
20240518040021 69 112 0.0 0.0 0.00 0.00 0.00 77 1003.4
20240518034517 69 148 0.0 0.0 0.00 0.00 0.00 77 1003.2
20240518033016 69 101 0.0 0.0 0.00 0.00 0.00 76 1003.2
20240518031515 70 105 0.0 0.0 0.00 0.00 0.00 74 1003.0
20240518030011 69 104 0.0 0.0 0.00 0.00 0.00 75 1002.9
20240518024508 69 104 0.0 0.0 0.00 0.00 0.00 74 1002.8
20240518023007 70 105 0.0 0.0 0.00 0.00 0.00 73 1002.7
20240518021505 71 105 0.0 0.0 0.00 0.00 0.00 71 1002.6
20240518020006 72 106 0.0 0.0 0.00 0.00 0.00 70 1002.4
20240518014600 73 106 0.0 0.0 0.00 0.00 0.00 68 1002.3
20240518013058 74 104 0.0 0.0 0.00 0.00 0.00 65 1002.2
20240518011557 74 340 0.0 0.0 0.00 0.00 0.00 65 1002.3
20240518010055 75 65 0.0 0.0 0.00 0.00 0.00 64 1002.3
20240518004552 75 284 0.0 0.0 0.00 0.00 0.00 63 1002.1
20240518003052 76 18 0.0 0.0 0.00 0.00 0.00 63 1002.1
20240518001548 76 16 0.0 0.0 0.00 0.00 0.00 61 1002.0
20240518000047 76 120 0.0 0.0 0.00 0.00 0.00 61 1001.8
20240517234555 76 22 0.0 0.0 0.00 0.00 0.00 60 1001.7
20240517233043 77 44 0.0 0.0 0.00 0.00 0.00 60 1001.6
20240517231550 78 250 0.0 0.0 0.00 0.00 0.00 61 1001.7
20240517230056 77 113 0.0 0.0 0.00 0.00 0.00 60 1001.7
20240517224541 77 84 0.0 0.0 0.00 0.00 0.00 59 1001.8
20240517223034 78 87 0.0 0.0 0.00 0.00 0.00 58 1001.8
20240517221536 78 94 0.0 0.0 0.00 0.00 0.00 56 1001.9
20240517220037 79 335 0.0 0.0 0.00 0.00 0.00 55 1001.9
20240517214528 80 98 0.0 0.0 0.00 0.00 0.00 52 1001.9
20240517213025 80 108 0.0 0.0 0.00 0.00 0.00 55 1002.0
20240517211523 80 114 0.0 0.0 0.00 0.00 0.00 56 1002.1
20240517210020 80 148 0.0 0.0 0.00 0.00 0.00 58 1002.2
20240517204515 80 75 0.0 0.0 0.00 0.00 0.00 55 1002.3
20240517203016 80 79 0.0 0.0 0.00 0.00 0.00 54 1002.5
20240517201508 80 278 0.0 0.0 0.00 0.00 0.00 58 1002.7
20240517200006 80 91 0.0 0.0 0.00 0.00 0.00 53 1002.9
20240517194503 81 117 0.0 0.0 0.00 0.00 0.00 53 1003.1
20240517193002 82 49 0.0 0.0 0.00 0.00 0.00 53 1003.1
20240517191600 81 131 0.0 0.0 0.00 0.00 0.00 52 1003.2
20240517190057 82 278 0.0 0.0 0.00 0.00 0.00 48 1003.4
20240517184555 82 110 0.0 0.0 0.00 0.00 0.00 52 1003.5
20240517183115 82 100 0.0 0.0 0.00 0.00 0.00 51 1003.7
20240517181547 82 38 0.0 0.0 0.00 0.00 0.00 57 1003.7
20240517180044 82 110 0.0 0.0 0.00 0.00 0.00 56 1003.9
20240517174603 82 169 0.0 0.0 0.00 0.00 0.00 60 1003.9
20240517173043 82 88 0.0 0.0 0.00 0.00 0.00 55 1004.0
20240517171534 81 79 0.0 0.0 0.00 0.00 0.00 63 1004.0
20240517170030 81 122 0.0 0.0 0.00 0.00 0.00 67 1004.3
20240517164524 78 117 0.0 0.0 0.00 0.00 0.00 70 1004.3
20240517163017 74 117 0.0 0.0 0.00 0.00 0.00 76 1004.4
20240517161516 73 215 0.0 0.0 0.00 0.00 0.00 76 1004.5
20240517160013 73 183 0.0 0.0 0.00 0.00 0.00 77 1004.6
20240517154509 72 143 0.0 0.0 0.00 0.00 0.00 80 1004.6
20240517153002 70 69 0.0 0.0 0.00 0.00 0.00 81 1004.7
20240517151602 70 70 0.0 0.0 0.00 0.00 0.00 85 1004.7
20240517150054 69 108 0.0 0.0 0.00 0.00 0.00 88 1004.9
20240517144549 68 105 0.0 0.0 0.00 0.00 0.00 89 1004.9
20240517143045 67 105 0.0 0.0 0.00 0.00 0.00 91 1005.0
20240517141540 66 107 0.0 0.0 0.00 0.00 0.00 93 1005.0
20240517140040 65 302 0.0 0.0 0.00 0.00 0.00 94 1004.9
20240517134531 64 302 0.0 0.0 0.00 0.00 0.00 96 1004.9
20240517133027 63 302 0.0 0.0 0.00 0.00 0.00 97 1004.8
20240517131523 61 302 0.0 0.0 0.00 0.00 0.00 97 1004.6
20240517130018 60 34 0.0 0.0 0.00 0.00 0.00 97 1004.5
20240517124514 0 0.0 0.0 0.00 0.00 0.00 1004.5
20240517123023 0 0.0 0.0 0.00 0.00 0.00 1004.5
20240517121503 0 0.0 0.0 0.00 0.00 0.00 1004.5
20240517120058 0 0.0 0.0 0.00 0.00 0.00 1004.3
20240517114559 0 0.0 0.0 0.00 0.00 0.00 1004.4
20240517113056 0 0.0 0.0 0.00 0.00 0.00 1004.3
20240517111543 0 0.0 0.0 0.00 0.00 0.00 1004.3
20240517110039 0 0.0 0.0 0.00 0.00 0.00 1004.2
20240517104534 0 0.0 0.0 0.00 0.00 0.00 1004.2
20240517103033 0 0.0 0.0 0.00 0.00 0.00 1004.3
20240517101523 0 0.0 0.0 0.00 0.00 0.00 1004.3
20240517100018 59 34 0.0 0.0 0.00 0.00 0.00 100 1004.4
20240517094517 60 34 0.0 0.0 0.00 0.00 0.00 97 1004.3
20240517093013 59 34 0.0 0.0 0.00 0.00 0.00 97 1004.3
20240517091517 59 34 0.0 0.0 0.00 0.00 0.00 97 1004.5
20240517090010 60 34 0.0 0.0 0.00 0.00 0.00 97 1004.6
20240517084507 60 34 0.0 0.0 0.00 0.00 0.00 97 1004.8
20240517083007 60 34 0.0 0.0 0.00 0.00 0.00 97 1004.8
20240517081604 59 34 0.0 0.0 0.00 0.00 0.00 97 1004.9
20240517080059 59 50 0.0 0.0 0.00 0.00 0.00 97 1005.0
20240517074554 59 50 0.0 0.0 0.00 0.00 0.00 97 1005.1
20240517073051 59 50 0.0 0.0 0.00 0.00 0.00 97 1005.2
20240517071549 59 49 0.0 0.0 0.00 0.00 0.00 97 1005.3
20240517070046 58 49 0.0 0.0 0.00 0.00 0.00 97 1005.5
20240517064552 58 50 0.0 0.0 0.00 0.00 0.00 97 1005.6
20240517063043 58 50 0.0 0.0 0.00 0.00 0.00 97 1005.6